sat.trackr.live / text

‹ back to catalog

YAOGAN-31 04C

NORAD 47857 · 2021-020D

PAYLOAD ACTIVE UNKNOWN

§ Identity

Operator
Country
PRC
Launch date
2021-03-13
Launch site
JSC
Launch vehicle
Mass (kg)
RCS (m²)

External: N2YO · Heavens-Above · Gunter

§ Orbital elements

Epoch: 2026-05-25T04:38:28.758624Z

Period
107.03 min
Inclination
63.4074°
Eccentricity
0.0172783
Mean motion
13.45446306 rev/d
Perigee alt
960.0 km
Apogee alt
1,218.1 km
Semi-major
7,467.2 km
B*
2.0689e-4
RAAN
317.1624°
Arg perigee
0.3953°
Mean anomaly
359.7179°
Rev number
25,536

§ Raw data

YAOGAN-31 04C1 47857U 21020D   26145.19338841  .00000044  00000+0  20689-3 0  99962 47857  63.4074 317.1624 0172783   0.3953 359.7179 13.45446306255367

JSON: /api/v1/satellites/47857 · /tle

For live sub-satellite position, see the globe view (requires WebGL).

§ Visibility from observer

Set your observer location to see the next 7 days of passes ≥ 10°. The values pass through the URL so the page stays shareable.

No JS? Fill the form by hand. The geolocation button needs JavaScript.